Find Starlink 11724

NORAD ID: 64124 Int'l Des: 2025-111 Owner: SPXS Country: US Constellation: starlink operational
別名: STARLINK-11724 [DTC] celestrak
LEOCIRCULAR

現在のビュー

3D地球を読み込み中...

About Starlink 11724

Starlink 11724 (NORAD 64124) is a starlink constellation satellite (v2 mini d2c) launched May 24, 2025 by SPXS of US. It operates in LEO, CIRCULAR orbit with a mass of 960.00 kg.

次回通過

Passes for default location (London). Set your location on the main map for personalized predictions.

高度履歴

Loading altitude history...

軌道要素

1 64124U 25111B 26237.84070849 .00138322 00000-0 10617-2 0 9993
2 64124 43.0009 34.1351 0002220 287.3050 72.7575 15.70881577 73241
Epoch: Aug 25, 2026 • Age: 18 hours

現在のステータス

高度 363.8 km
遠地点 / 近地点 N/A
速度 7.69 km/s
衛星直下点 -33.71°S, 155.53°E
打ち上げ日 May 24, 2025
運用期間 1.2 years
タイプ internet

技術仕様

分類 Payload
質量 960.00 kg
乾燥質量 910.00 kg
総質量 960.00 kg
長さ 0.30 m
直径 4.10 m
スパン 29.00 m
形状 Box + pan
製造者 SPXS
バスタイプ Starlink V2MD
フェーズステータス In Orbit
所有者/国 SPXS/US

Most Searched